Wind_Speed
95 97 97 98 101 103 106 107 107 105 105 104 97 85 74 68 65 68 73 76 78 78 77 75 72 71 68 66 65 63 61 59 58 56 53 48 45 46 45 40 39 41 40 39 39 38 37 36 35 33 33 34 34 34 34 33 32 31 30 28 27 25 25 26 24 24 19 16 18 18 17 17 16 16 15 14 15 15 15 15 15 14 14 13 14 13 13 13
96 97 98 99 101 104 106 108 109 107 105 105 102 92 80 71 65 67 72 74 77 78 77 76 74 73 70 68 66 64 63 61 60 57 53 50 48 47 46 42 41 42 40 39 38 36 35 35 34 32 33 35 34 34 33 33 32 32 31 29 27 26 28 28 25 22 18 18 21 19 18 17 17 17 16 16 15 15 16 15 16 15 15 15 14 14 13 13
98 98 99 100 101 104 107 108 110 108 106 106 104 97 87 78 69 67 70 73 74 75 77 77 75 74 72 69 67 65 64 63 62 58 54 53 50 46 45 43 42 42 40 38 37 35 36 35 34 34 35 35 34 33 33 32 31 32 32 30 28 29 30 26 23 22 21 22 21 20 19 18 18 18 18 17 16 16 16 16 16 16 16 16 15 14 13 13
99 100 100 101 102 105 107 109 111 110 108 106 106 101 93 84 72 67 69 70 70 69 74 78 77 75 73 71 68 67 66 65 63 58 56 55 50 48 46 43 44 42 40 39 37 36 37 36 36 36 36 35 33 32 31 29 30 32 31 29 29 31 29 24 23 24 24 24 22 22 21 18 18 19 19 18 18 17 15 15 15 16 16 17 17 16 15 14
98 101 102 103 104 106 108 110 112 111 109 107 107 104 98 90 74 65 67 68 67 65 70 77 78 77 74 72 71 68 67 67 63 58 58 57 52 50 48 45 46 44 42 40 38 37 38 37 37 36 35 34 32 30 28 27 29 30 29 30 30 30 28 22 22 25 25 24 23 24 21 19 19 20 20 20 20 17 14 14 15 15 17 18 18 18 17 16
96 101 104 105 106 108 110 111 113 113 111 108 107 105 102 96 78 65 67 69 68 64 66 74 77 78 76 74 73 70 69 68 63 59 58 57 55 53 50 48 47 46 44 41 38 38 38 37 36 34 34 32 30 28 27 28 29 28 29 31 31 31 28 22 22 26 26 25 24 24 21 21 21 21 20 21 20 17 15 16 15 16 17 19 19 18 18 17
90 98 103 108 109 110 111 113 114 114 112 109 108 106 104 101 83 66 69 72 68 64 63 70 75 76 77 77 76 73 71 69 64 60 59 58 57 56 53 50 48 47 45 42 39 38 37 37 36 34 33 32 29 28 28 29 28 27 29 31 31 32 28 23 25 28 27 26 24 23 23 24 23 21 21 22 21 18 18 17 15 16 17 19 19 18 19 18
79 92 99 106 111 112 113 114 115 115 114 110 108 108 105 103 89 69 67 73 71 67 63 65 71 74 78 79 78 76 73 71 66 62 60 59 59 59 55 51 49 48 46 42 39 39 38 38 37 36 34 32 29 28 29 28 27 27 28 30 29 30 28 25 28 30 27 26 25 24 25 26 24 23 22 24 22 19 19 18 17 17 17 19 19 18 19 18
68 82 93 102 110 113 114 115 115 116 115 111 108 108 106 104 94 72 67 73 72 70 64 61 67 72 78 80 79 78 73 69 67 64 61 61 61 60 58 53 50 49 46 42 41 42 39 38 37 36 33 32 30 30 29 27 26 27 27 27 26 27 27 26 30 31 28 26 26 25 26 27 26 24 24 25 22 18 19 19 19 18 18 18 18 18 18 19
63 72 85 93 101 108 113 115 115 116 115 112 109 108 108 106 97 78 71 74 70 70 69 64 65 72 79 82 82 80 73 69 69 64 62 62 62 62 59 55 51 51 48 43 43 43 39 39 40 38 34 33 31 30 29 28 27 27 26 24 23 25 24 24 27 28 27 27 27 27 27 27 27 25 25 25 22 19 20 20 20 20 19 19 18 17 18 18
62 67 78 86 92 100 109 114 114 115 115 111 109 109 109 108 100 82 73 74 69 68 70 68 67 72 80 83 84 81 73 72 71 65 64 63 62 62 60 57 53 52 50 45 43 41 40 42 42 38 36 35 33 31 31 30 28 26 25 23 22 24 23 22 24 23 24 26 27 28 29 28 26 25 25 26 23 21 22 21 20 21 21 20 19 18 17 17
63 66 75 83 89 94 101 110 113 113 113 110 109 109 108 110 105 87 75 73 71 68 67 69 69 71 79 83 84 82 75 73 72 67 66 65 63 62 61 60 56 54 51 48 47 43 42 45 43 40 38 37 33 33 34 31 29 28 26 25 26 25 22 20 21 21 22 24 25 27 30 28 25 25 27 28 26 24 23 21 20 21 22 21 20 19 18 17
65 67 73 81 88 91 93 104 112 111 109 108 108 108 107 110 106 90 78 73 72 71 66 66 70 72 77 83 85 83 77 75 73 69 68 66 65 64 63 63 60 57 54 53 52 45 42 45 44 42 41 39 37 38 37 33 31 30 29 30 29 26 21 20 22 21 22 22 23 28 31 28 25 27 31 30 27 25 24 22 21 21 22 22 22 21 20 18
67 69 73 79 86 89 89 97 109 110 105 104 106 105 105 108 106 94 84 77 74 74 68 63 67 73 78 82 85 84 79 77 75 70 69 67 67 67 65 64 62 60 58 57 55 48 43 45 45 44 43 42 42 42 39 36 34 32 33 34 30 25 22 22 22 20 20 21 24 30 30 27 27 28 30 29 26 26 26 23 23 22 22 23 23 22 22 20
67 70 73 79 84 86 87 92 104 109 103 100 103 102 102 105 104 96 85 80 76 76 73 65 66 75 80 84 86 85 81 79 77 72 69 68 68 69 65 63 63 62 61 60 58 52 47 48 49 47 46 45 46 44 40 39 37 35 37 36 31 27 25 23 22 20 20 21 24 28 27 25 27 27 28 29 27 28 28 26 25 24 23 23 23 23 23 22
66 71 73 77 81 81 82 88 99 107 103 98 99 100 101 103 102 94 79 76 78 76 76 71 70 74 79 87 89 86 83 80 77 72 70 69 69 68 65 64 64 63 62 62 60 56 51 51 51 49 49 49 48 45 42 41 39 39 40 36 31 29 27 25 23 21 21 20 22 24 23 24 26 27 29 30 29 31 31 30 28 26 24 23 23 24 24 23
64 71 72 73 79 79 78 85 95 104 102 95 94 98 101 100 101 94 76 73 78 76 77 74 70 73 79 89 90 86 85 81 77 74 70 69 69 68 66 66 65 63 64 64 62 59 55 54 53 51 51 52 50 47 46 46 44 43 40 33 30 28 28 28 25 23 23 21 23 25 24 22 25 28 30 30 31 33 32 31 29 27 25 24 24 24 24 23
63 68 70 70 76 78 76 83 92 101 101 94 91 95 99 98 99 94 77 74 77 76 79 75 72 79 85 91 91 86 83 81 78 75 73 72 71 68 67 68 66 65 67 66 64 61 59 58 56 55 53 53 55 52 50 51 46 42 37 30 29 29 29 30 26 23 26 25 26 27 23 22 25 28 29 29 30 32 31 29 28 26 25 24 24 24 24 23
60 65 70 71 72 74 76 82 90 99 102 96 91 92 99 97 98 97 83 76 76 77 83 82 79 82 83 87 90 86 81 79 78 75 74 74 72 69 68 69 68 68 69 67 65 63 62 61 60 60 54 50 55 55 51 49 45 40 37 32 32 33 32 31 27 26 29 30 27 25 22 23 26 26 27 28 29 30 28 26 26 25 26 26 25 24 24 24
57 61 68 70 69 71 76 82 89 100 104 96 88 90 100 101 100 104 97 83 75 77 84 83 80 75 72 81 89 86 80 78 76 73 74 75 73 69 68 70 71 72 70 67 66 65 65 64 62 62 55 45 47 52 50 46 44 42 40 37 34 35 35 32 32 31 30 31 28 25 23 23 25 25 25 26 26 25 24 24 24 24 25 26 25 25 25 24
56 58 63 67 66 68 76 83 89 101 106 94 83 88 100 103 103 106 105 92 77 76 83 80 77 72 69 76 84 84 81 79 76 74 74 75 73 71 71 71 73 73 71 69 69 67 67 67 63 60 57 49 44 47 48 46 45 44 43 41 37 38 37 35 37 34 30 31 30 29 26 22 24 25 24 25 24 22 22 23 22 22 23 23 23 25 25 26
54 57 59 61 61 64 75 83 90 103 108 96 82 84 94 100 103 101 100 94 79 78 84 78 76 77 72 72 79 83 81 80 79 77 77 76 76 75 74 74 73 72 72 72 72 71 69 68 65 60 59 57 50 47 47 46 45 46 45 43 41 39 37 37 39 36 32 33 33 34 30 23 24 26 24 23 21 21 22 23 22 22 21 20 20 23 25 26
49 54 56 57 58 61 74 83 90 104 110 98 81 78 85 92 97 95 94 89 78 80 85 80 78 80 76 74 78 83 83 81 80 79 80 80 79 78 76 75 74 72 73 73 72 71 70 67 66 63 61 61 57 53 50 48 48 48 44 41 40 39 37 38 40 38 34 34 34 35 34 28 27 28 24 22 21 21 23 22 22 22 20 19 20 21 23 24
47 52 55 58 56 56 69 82 89 101 109 101 84 75 77 83 89 92 94 85 72 77 85 83 81 80 79 76 73 78 84 83 80 79 81 82 82 81 78 76 75 73 73 73 71 70 69 66 65 64 63 62 60 58 55 52 53 51 44 41 41 39 39 40 42 41 35 33 35 37 39 34 28 28 25 23 24 23 22 23 21 19 19 20 21 20 21 22
45 50 54 59 59 54 62 77 87 98 108 106 90 74 68 72 82 92 97 86 69 71 81 84 83 81 82 79 73 76 82 83 81 79 79 81 83 82 79 78 76 74 74 72 71 71 70 68 65 64 63 62 62 61 58 55 55 52 45 42 42 41 43 44 43 41 35 34 37 39 43 38 29 28 26 24 26 23 22 24 19 18 21 21 20 19 21 22
44 47 52 58 62 61 63 72 83 93 106 109 92 74 63 64 79 92 97 91 74 71 80 84 84 87 88 85 79 77 80 82 81 80 78 77 78 79 78 78 77 75 74 72 71 71 71 69 66 65 64 62 62 61 59 57 56 52 45 44 45 44 45 46 41 39 37 38 40 42 44 41 31 27 25 25 26 24 23 22 19 19 21 21 21 21 22 22
44 45 50 54 57 62 64 70 80 88 100 107 92 76 65 62 77 90 93 91 78 71 79 83 82 86 90 90 84 78 80 84 82 80 80 77 76 77 77 77 76 75 73 73 73 72 71 69 67 66 65 63 62 61 58 56 55 51 47 47 47 45 45 44 41 39 40 42 44 44 44 44 36 25 23 27 28 25 22 20 20 21 21 21 23 24 24 24
48 46 47 50 52 57 62 68 77 83 95 105 95 80 68 62 75 88 88 86 80 72 75 81 81 80 86 90 88 82 77 77 81 82 82 79 77 77 76 76 74 73 73 73 74 72 69 68 67 66 65 64 62 59 56 54 53 51 50 49 46 44 44 43 42 41 42 45 47 47 43 44 41 26 23 30 29 23 21 20 21 21 21 22 23 24 24 23
50 50 47 48 50 53 59 65 73 81 91 100 97 85 69 61 74 89 87 80 79 78 74 78 82 81 85 88 87 87 79 72 76 82 83 83 81 78 77 75 72 71 72 72 71 70 68 66 65 64 64 63 58 56 55 52 52 51 51 49 44 43 44 44 45 44 45 48 49 49 45 44 44 33 26 30 29 22 21 22 22 23 23 23 24 24 23 23
45 49 48 48 48 51 56 61 69 79 86 92 98 92 71 63 77 93 94 79 74 82 77 75 84 86 88 90 86 87 85 78 74 77 82 84 83 81 78 75 73 72 72 72 71 69 66 64 65 64 62 59 55 54 54 52 52 52 52 51 46 44 46 47 48 48 49 51 50 49 47 45 47 40 28 27 27 23 22 24 24 25 25 24 24 24 23 23
42 42 45 47 48 49 52 56 64 75 83 89 97 94 76 69 77 88 97 84 69 80 80 73 83 89 88 91 90 88 86 82 76 77 82 83 82 84 82 78 75 73 72 73 73 70 68 66 66 66 62 60 58 56 57 56 54 53 54 53 48 47 49 51 52 53 53 54 51 48 47 46 48 43 30 24 25 23 22 25 28 28 27 26 25 24 23 23
44 42 42 44 46 49 49 53 59 68 80 87 92 95 86 80 80 79 91 89 71 75 81 73 79 90 88 87 91 93 92 87 81 78 79 80 83 86 86 84 81 79 78 76 75 73 71 69 67 67 66 63 62 60 60 60 56 56 57 55 51 50 53 54 56 56 55 54 51 48 47 48 48 43 34 26 24 25 24 27 31 30 28 28 26 25 24 23
47 44 42 42 43 47 49 51 57 64 76 84 87 93 94 91 87 75 80 90 77 70 77 74 74 86 90 86 86 91 92 92 88 83 79 76 80 83 84 86 85 83 82 79 78 77 74 72 71 71 69 66 65 64 64 63 59 60 62 60 56 55 56 57 57 57 56 54 52 49 48 50 47 42 38 30 26 28 27 27 29 30 30 29 29 27 24 24
44 44 42 41 41 44 46 49 55 61 71 80 83 90 93 93 90 75 70 83 81 68 68 71 70 79 90 88 85 86 87 88 88 85 83 81 82 84 84 86 85 83 81 79 79 78 77 77 76 76 73 69 67 66 65 62 58 58 61 60 58 57 57 57 57 56 55 54 52 51 51 51 45 41 39 33 29 29 28 27 28 30 30 29 29 28 26 26
43 43 41 40 40 42 43 47 52 58 67 75 79 86 89 90 91 79 66 75 81 68 61 65 67 75 87 88 85 85 84 85 84 82 84 86 84 83 83 83 82 81 82 82 80 78 77 76 76 74 72 68 66 66 65 62 59 58 60 60 58 57 57 58 58 57 56 55 54 53 53 50 45 43 41 38 35 32 29 28 28 29 30 30 30 29 29 29
43 43 43 42 40 40 42 45 50 56 63 70 75 81 86 89 90 80 66 68 76 66 55 57 65 74 84 87 84 85 84 82 81 81 81 82 80 78 76 75 75 77 80 82 81 79 78 77 76 74 71 68 66 66 64 62 60 60 61 62 59 55 55 56 57 57 56 57 56 54 53 50 47 46 44 40 37 35 31 30 29 30 32 32 32 32 32 33
42 41 42 42 41 40 42 44 47 52 59 65 71 78 85 88 89 81 66 63 67 61 50 54 67 75 80 85 84 85 86 82 79 80 81 81 79 77 74 71 70 72 74 75 78 78 78 78 78 76 73 70 68 68 67 64 62 62 62 61 59 56 57 58 59 58 57 58 58 56 54 52 51 49 45 40 37 36 34 32 31 32 34 34 34 34 34 33
42 40 40 41 40 40 41 43 45 49 55 61 67 75 82 85 89 86 72 63 61 56 47 50 65 74 77 83 85 85 88 87 83 81 80 81 81 80 77 74 71 70 68 70 74 75 76 77 77 77 75 72 70 70 70 68 66 65 64 62 60 59 59 60 61 61 60 60 60 58 57 55 53 49 44 39 37 37 38 35 33 34 36 37 36 35 34 32
43 42 42 41 41 41 40 41 43 46 51 57 63 71 78 81 88 90 80 69 62 56 48 45 57 70 74 78 85 87 88 89 89 86 82 82 83 82 80 77 75 73 70 69 72 73 72 74 76 75 74 73 73 73 72 70 68 67 67 66 64 63 62 61 61 60 59 59 59 59 59 57 53 47 43 40 38 38 39 38 36 36 37 38 36 34 33 32
45 43 43 43 42 42 41 40 41 44 48 54 59 67 76 80 86 91 85 75 66 60 52 44 50 65 69 71 81 87 87 88 89 89 87 84 82 82 82 80 77 75 73 71 72 72 72 73 75 74 74 75 76 74 72 70 68 68 69 69 68 68 66 64 63 61 60 59 59 60 60 58 52 47 43 41 39 38 38 39 39 38 38 36 34 33 33 32
45 43 43 43 43 42 41 40 41 42 44 50 55 61 71 77 83 90 89 81 70 62 55 44 45 58 64 63 71 81 85 85 83 83 84 83 82 80 81 81 79 77 76 75 75 74 73 73 73 74 74 73 72 71 70 70 69 68 67 67 67 67 66 65 64 62 60 60 59 60 60 57 52 49 44 39 39 39 39 40 42 41 38 34 33 32 32 31
47 44 42 42 43 42 41 39 39 40 41 45 50 56 65 72 77 85 91 86 74 65 60 50 44 53 61 60 63 72 79 82 81 80 78 78 78 75 72 72 73 75 75 76 75 73 73 74 73 73 72 71 69 70 71 70 69 68 67 67 65 65 65 64 62 60 59 59 58 59 60 57 53 52 47 39 38 41 42 42 42 40 37 33 31 30 30 31
49 45 42 41 42 42 41 39 37 38 39 41 45 50 58 65 70 78 87 90 80 70 69 62 49 49 59 61 59 65 73 77 80 79 74 72 71 69 67 67 68 71 74 75 76 76 77 78 77 75 73 71 69 69 69 69 70 70 69 68 67 67 65 62 61 59 58 59 58 58 60 59 57 54 47 40 39 41 41 41 39 36 34 32 30 29 30 32
51 48 44 42 43 42 41 39 37 37 37 38 41 45 52 59 65 70 81 91 88 79 76 73 59 49 55 61 59 61 69 73 75 77 74 71 69 67 68 68 68 70 73 74 75 76 77 78 78 77 75 75 74 74 72 72 71 70 68 67 68 67 65 64 62 61 62 62 60 59 61 60 57 53 46 41 41 40 38 37 35 34 34 33 33 34 35 36
51 50 47 45 43 42 40 39 37 36 36 36 37 40 45 53 59 64 73 87 92 89 84 79 68 54 51 58 59 59 65 71 72 74 74 72 70 69 69 68 68 69 68 70 73 74 75 77 77 77 78 79 78 75 72 71 71 71 69 68 68 67 67 66 64 66 67 64 62 62 61 57 53 50 47 42 40 37 35 34 34 35 37 36 37 39 38 38
50 50 49 47 45 42 40 38 36 34 33 33 34 35 39 46 52 58 67 79 88 91 88 82 75 62 51 52 57 56 60 67 71 72 72 74 72 70 68 66 65 66 65 68 72 74 77 78 76 75 76 73 70 68 67 67 69 70 68 68 67 68 69 68 67 67 64 60 61 59 54 51 49 47 45 41 37 34 33 34 35 36 38 39 40 41 41 41
49 48 47 46 45 44 41 37 34 32 31 31 32 33 34 39 45 51 60 69 78 85 88 85 80 70 56 49 53 55 55 60 69 71 71 73 72 69 67 64 62 64 65 67 69 71 76 77 74 72 70 66 64 66 65 64 65 64 64 64 64 65 67 68 67 63 58 60 61 54 47 47 45 42 40 36 33 31 31 34 35 37 39 41 42 42 42 42
49 47 45 43 42 42 40 38 35 34 32 32 32 32 33 35 39 44 52 61 68 77 85 87 82 76 65 52 48 54 54 54 62 69 70 71 71 69 67 64 62 62 65 67 67 67 71 70 67 67 66 63 64 64 62 62 63 63 61 60 59 60 62 64 62 56 56 60 56 46 44 45 39 35 35 33 30 30 32 34 36 39 42 43 44 44 42 42
49 47 46 44 42 40 38 38 38 37 35 35 34 33 33 34 35 39 45 53 60 69 80 86 84 81 75 62 49 49 54 54 56 62 66 68 71 70 67 65 64 62 62 65 65 66 67 64 61 63 63 61 61 60 58 59 62 63 62 61 59 58 58 58 56 54 55 58 50 42 45 45 36 32 33 33 33 36 38 39 39 41 44 46 46 45 43 43
50 49 47 46 44 42 40 39 37 36 35 35 34 33 32 33 35 37 41 47 52 61 72 82 85 83 81 73 59 48 48 51 54 57 60 64 68 69 68 68 67 65 64 63 64 65 64 61 59 60 61 62 61 58 57 59 60 61 61 61 61 60 58 57 55 53 55 55 47 42 45 43 37 35 36 38 41 43 45 45 41 41 45 47 47 46 44 44
49 49 48 46 45 44 43 41 39 37 36 35 33 32 31 31 33 34 38 43 47 53 64 75 80 81 79 77 69 56 47 46 50 56 58 61 65 67 69 70 70 68 68 66 65 65 63 61 60 61 63 63 59 58 60 60 60 63 63 62 61 60 58 56 53 52 53 50 45 45 47 44 40 40 40 43 45 45 44 44 41 41 44 46 45 45 45 46
47 47 47 46 45 44 42 42 42 41 38 35 33 31 29 30 32 33 37 40 42 47 56 66 73 75 75 75 72 67 57 47 46 53 58 60 64 66 69 73 73 72 70 69 67 65 64 63 64 65 65 61 58 60 60 61 66 69 62 55 54 53 52 53 52 51 50 45 43 45 42 37 36 38 40 42 43 40 39 39 38 40 43 46 46 46 47 47
Wind_Direction
218 218 217 216 216 216 215 216 218 216 215 216 213 208 208 208 212 218 220 219 219 219 218 219 220 220 219 216 215 214 214 215 215 212 211 213 213 216 217 214 213 216 217 216 217 217 218 218 220 220 221 221 217 216 216 216 217 219 219 221 221 220 222 221 220 223 219 218 223 218 218 219 221 225 221 220 218 218 219 215 215 212 208 209 212 215 216 217
218 217 216 215 215 215 215 215 217 217 215 215 214 210 208 210 210 214 219 219 218 219 218 218 220 220 219 217 216 215 214 215 215 212 210 211 212 214 218 215 213 214 214 215 216 217 218 220 221 221 223 221 218 217 217 217 218 219 220 220 221 222 225 223 222 223 217 222 225 220 220 218 220 225 225 225 222 220 220 217 218 217 214 214 214 217 219 220
217 216 216 215 214 215 215 214 216 217 215 215 215 212 210 212 211 210 216 219 218 220 219 218 219 220 220 218 216 216 215 215 214 211 210 212 211 212 216 216 216 215 212 214 214 215 217 219 220 221 221 219 217 218 218 219 219 221 221 220 221 224 227 225 223 221 217 222 226 225 223 220 220 224 226 227 227 224 222 220 220 220 218 217 216 216 219 223
216 215 215 214 213 214 214 214 215 217 215 214 214 213 211 211 211 209 211 216 216 218 220 219 219 219 220 219 218 216 215 215 213 210 211 212 210 210 213 214 218 216 211 212 211 214 216 216 218 219 219 218 216 217 217 218 219 220 221 221 223 226 227 225 223 221 219 220 224 227 226 224 223 224 226 227 228 227 226 226 224 224 222 221 219 216 216 217
215 214 214 214 213 213 213 213 214 216 216 214 214 213 212 211 210 209 208 211 213 215 219 219 218 219 220 220 219 216 215 215 212 210 211 211 210 210 211 211 216 215 210 211 210 212 216 216 218 218 218 217 215 216 215 215 218 218 219 222 224 229 228 223 227 226 222 219 221 227 228 228 228 226 227 228 229 228 229 232 227 226 227 226 223 220 218 215
215 213 213 213 212 212 212 213 213 215 216 213 213 212 212 212 211 209 206 208 212 213 218 219 218 219 220 220 220 217 216 215 211 210 211 211 210 211 211 211 214 214 211 210 210 212 214 216 219 219 218 217 214 213 214 215 217 216 217 221 223 228 227 217 226 230 224 220 220 224 227 229 231 230 229 230 231 227 227 229 228 227 228 231 228 225 224 220
215 213 212 212 211 212 212 212 212 214 215 213 212 212 211 211 211 209 205 207 211 210 213 217 217 218 219 220 220 217 215 214 211 210 211 209 210 211 211 212 214 214 212 210 211 213 214 215 217 217 218 217 214 212 214 215 216 215 216 221 221 226 226 214 223 231 226 222 220 222 225 228 231 232 233 234 231 226 227 227 229 230 230 234 233 231 229 226
215 213 213 212 211 211 211 212 212 212 214 213 212 211 210 210 210 209 205 206 209 208 209 214 215 216 219 220 220 217 214 214 211 209 210 209 210 212 211 212 213 214 213 210 211 215 216 217 217 217 218 219 215 213 215 215 216 216 217 221 223 226 226 219 225 232 229 226 223 222 225 228 230 231 234 237 233 227 230 229 229 233 234 238 237 236 234 231
213 212 213 213 211 211 211 211 211 212 213 213 211 210 210 210 210 210 207 207 209 209 207 211 215 217 218 219 219 218 215 215 213 209 210 210 210 211 211 212 212 212 212 208 211 215 215 218 221 220 220 221 219 216 217 217 216 218 218 220 221 225 225 222 227 232 232 230 228 225 226 227 228 229 233 239 238 231 234 232 231 233 235 240 241 240 239 236
210 211 212 213 212 211 211 210 211 211 212 212 211 210 209 209 210 211 209 207 208 209 208 208 213 217 218 218 218 216 213 216 215 210 210 211 211 211 210 212 211 211 211 208 210 214 214 216 221 221 220 222 222 220 220 220 220 220 221 220 219 222 220 221 227 231 233 233 232 229 228 228 228 230 234 240 241 236 237 236 234 236 235 239 243 242 243 241
208 209 211 212 211 211 211 210 210 211 211 211 210 209 209 209 210 211 210 207 207 208 207 208 210 216 218 217 217 215 212 216 215 209 211 212 212 212 210 212 212 211 211 210 210 213 216 218 222 223 221 223 224 224 225 224 224 224 224 221 220 222 216 217 226 228 231 233 233 233 230 228 227 230 234 239 239 235 236 236 236 238 238 239 242 243 245 245
206 207 210 211 210 210 211 211 210 210 210 210 210 209 208 209 210 211 212 211 209 208 206 207 209 214 217 217 216 215 213 216 215 210 210 211 213 213 211 212 213 212 211 210 212 215 216 216 219 220 221 224 225 228 229 228 228 228 228 226 224 224 218 220 228 227 229 233 234 235 232 226 223 225 232 235 235 234 235 236 236 238 241 241 242 244 245 246
204 207 209 209 207 208 211 211 210 209 209 209 209 208 208 209 210 210 213 215 212 209 207 207 210 212 216 217 215 214 214 215 215 211 210 210 212 213 212 212 212 212 211 210 214 218 214 212 216 219 220 222 223 227 229 229 231 231 231 231 228 226 225 227 232 231 232 236 236 236 232 224 218 220 229 235 237 239 239 237 237 237 240 243 244 246 247 248
206 207 207 206 206 208 211 210 210 208 207 209 208 207 208 209 210 210 213 219 215 209 209 209 211 213 214 216 215 214 214 215 214 212 210 210 212 212 212 212 211 211 211 210 214 219 216 210 213 218 220 221 223 226 228 228 230 231 232 233 231 228 228 231 235 237 238 241 238 235 231 223 218 219 228 237 238 241 241 237 237 237 238 241 243 246 248 250
209 207 205 205 205 208 211 209 209 207 205 207 208 207 207 208 210 210 212 221 219 211 211 212 211 212 213 214 214 213 214 215 214 212 211 211 212 213 212 212 213 212 212 212 213 217 216 212 212 215 219 221 223 225 226 228 229 231 233 233 233 229 228 232 236 241 242 243 240 236 230 223 222 220 224 233 235 239 241 239 237 237 237 238 241 244 247 249
210 206 204 205 206 208 211 209 207 205 203 206 207 206 206 207 208 207 209 220 223 214 212 214 211 211 214 214 213 213 213 214 213 212 211 212 212 213 212 213 214 213 214 214 214 215 215 214 213 215 218 222 224 224 225 228 228 231 233 232 232 232 232 233 236 242 244 242 241 236 226 220 224 224 224 229 234 238 241 242 241 240 240 239 241 243 245 248
208 206 204 206 208 210 211 209 206 203 201 203 206 206 206 206 206 205 206 215 221 218 214 215 212 210 213 214 213 213 212 213 213 211 212 213 213 212 212 214 214 214 215 216 216 216 215 215 215 215 219 222 224 224 224 227 228 230 233 233 233 235 236 236 236 243 248 242 237 234 224 217 224 229 228 228 233 239 241 244 246 247 247 245 245 246 246 248
205 205 206 207 208 211 212 209 205 201 200 200 202 206 207 206 205 204 204 209 215 219 216 214 212 211 213 213 212 212 212 213 213 212 212 212 213 212 212 214 214 214 215 216 216 216 217 217 216 217 220 222 223 223 224 227 228 230 235 235 234 236 238 238 235 239 247 242 233 233 228 222 225 230 233 231 233 240 243 246 251 253 254 252 249 248 248 248
204 205 207 208 210 212 211 208 205 199 198 197 196 202 207 206 205 203 203 205 208 215 216 212 210 211 213 213 212 212 212 213 213 212 213 213 212 212 213 213 214 215 215 215 216 216 217 217 217 217 219 222 222 223 225 228 231 232 235 233 231 232 236 239 236 233 240 243 237 234 229 226 227 229 233 234 234 239 244 248 251 254 256 256 255 253 251 249
204 206 209 210 212 213 209 207 204 199 197 194 190 196 203 204 204 204 206 207 206 213 219 216 213 213 213 214 214 213 212 212 213 214 214 215 213 213 214 213 214 215 214 215 217 217 218 219 218 217 218 221 222 222 224 229 230 230 230 228 229 235 238 240 241 236 237 245 245 240 229 226 231 230 231 235 235 238 242 245 247 250 254 256 255 254 253 252
203 205 209 212 214 214 208 205 203 199 196 193 188 192 199 202 203 204 208 210 205 208 218 220 219 218 215 215 215 214 215 214 212 214 215 216 215 214 215 215 215 215 214 215 216 217 219 219 219 218 218 221 224 223 223 225 226 227 228 228 230 238 240 241 244 242 239 243 246 244 234 225 233 235 233 236 237 238 241 244 246 248 251 254 253 250 249 249
204 205 207 210 215 214 209 205 203 200 197 192 188 188 194 200 203 204 209 210 204 204 213 215 216 218 216 215 214 214 217 216 213 212 214 216 217 216 215 216 217 217 216 216 217 217 218 218 218 218 219 221 224 224 223 222 225 228 229 230 231 235 239 242 245 244 240 241 243 245 241 228 231 236 235 238 240 241 243 245 247 248 250 253 253 251 250 250
205 205 203 206 212 213 209 206 204 202 199 193 189 186 189 194 199 203 206 207 204 204 209 210 211 215 215 214 212 212 215 216 215 214 213 214 216 216 216 216 217 217 217 218 218 220 220 220 219 219 220 221 223 224 224 224 226 228 228 231 232 234 238 242 245 244 239 242 245 248 248 236 232 236 236 240 242 241 243 244 245 249 251 252 253 253 254 256
204 205 204 203 207 211 210 208 206 205 200 195 190 186 186 189 193 198 200 201 201 204 208 210 212 216 217 217 215 213 214 215 215 215 215 215 216 216 215 216 217 218 218 218 220 221 222 222 222 222 222 222 223 224 225 227 230 231 230 233 237 238 240 240 243 244 240 243 247 250 251 242 235 238 237 239 242 242 245 247 247 250 253 252 254 257 258 258
204 206 207 205 204 206 209 210 209 207 202 198 194 186 185 190 192 194 197 198 198 200 206 209 209 212 217 217 217 215 214 214 214 214 216 218 219 218 216 216 217 218 218 218 219 221 222 223 224 225 225 224 225 226 227 229 233 235 233 236 239 240 240 239 241 245 244 243 246 249 252 247 237 239 239 239 244 243 244 250 251 252 255 256 257 258 259 258
202 203 206 208 207 206 207 211 210 208 205 202 196 186 186 194 194 193 196 199 198 197 203 207 206 210 214 215 215 214 213 213 213 213 215 218 220 221 220 218 217 218 218 219 220 221 222 222 224 225 226 226 227 228 229 231 235 236 234 236 239 239 240 241 241 246 247 244 244 247 252 252 241 237 241 245 246 243 243 250 255 255 257 261 260 258 258 258
203 203 205 208 211 211 212 213 211 210 207 203 196 187 188 194 196 194 194 198 201 197 200 205 206 210 213 215 216 214 213 211 210 211 212 215 218 220 222 221 220 220 219 219 220 221 222 223 224 226 227 227 228 230 231 232 236 238 237 237 239 240 243 245 243 245 247 248 247 246 250 255 249 236 239 246 246 245 246 251 256 257 259 260 259 258 258 258
206 207 207 208 210 212 214 215 214 212 208 204 197 190 189 192 195 196 195 200 203 197 197 203 206 209 212 214 216 216 216 213 210 211 212 213 215 218 221 222 223 223 223 223 222 221 222 224 225 226 228 228 229 231 232 233 236 238 239 239 240 243 246 247 246 244 245 248 250 249 249 254 254 243 238 246 248 249 252 254 255 256 257 257 258 258 259 260
205 208 209 209 210 212 214 216 215 213 209 206 201 193 189 192 195 196 199 205 204 199 199 202 204 208 210 212 214 215 216 214 212 213 214 214 215 216 219 221 222 223 225 226 226 225 224 225 226 227 229 229 230 233 234 234 236 238 241 241 240 242 244 245 245 244 244 245 248 251 251 253 254 247 238 247 252 252 253 257 258 260 259 259 261 261 262 263
204 209 211 212 211 213 215 216 216 214 210 207 204 197 190 190 193 197 203 206 202 200 202 201 201 205 209 210 211 213 214 212 210 213 215 215 214 215 217 218 220 222 223 225 225 226 226 226 228 228 228 229 230 232 234 234 235 237 239 241 239 239 241 243 243 243 244 244 245 249 253 255 254 247 238 245 254 255 258 263 265 263 262 262 265 268 270 269
202 206 210 211 211 212 213 215 216 216 211 207 205 199 191 189 192 199 206 204 199 201 203 203 203 204 208 210 210 211 213 211 208 210 214 214 214 215 214 214 216 218 220 223 224 223 224 225 227 229 228 229 229 229 231 231 232 234 236 238 238 237 239 241 242 242 243 244 245 247 252 255 253 249 247 247 253 258 261 265 265 264 266 268 270 272 273 273
202 203 205 207 208 210 212 213 214 215 212 208 207 201 195 195 198 202 205 203 202 202 201 204 205 205 207 210 212 214 214 212 209 209 212 214 215 217 217 216 216 216 218 220 222 223 224 224 226 228 228 228 229 229 230 230 230 232 234 236 235 235 237 239 241 243 244 245 247 248 251 253 251 254 260 258 257 259 258 261 266 269 272 273 273 272 272 273
205 206 207 206 207 209 212 213 213 214 212 210 209 204 201 204 203 200 203 205 205 202 201 205 207 208 207 207 210 214 216 217 214 212 213 215 218 219 219 219 219 220 221 221 222 222 223 224 224 226 227 227 228 229 230 232 232 233 235 235 235 235 236 239 241 244 246 247 249 251 253 254 253 256 264 266 264 261 259 260 265 270 272 274 276 276 275 275
205 208 209 208 207 208 210 212 213 214 212 212 212 208 207 209 205 198 200 206 205 201 202 206 208 209 208 206 209 212 214 217 216 216 215 216 218 218 218 218 218 219 222 223 224 223 224 224 224 225 226 227 228 230 231 232 232 233 236 237 236 237 239 242 244 246 248 250 251 252 253 254 255 258 263 267 266 264 264 264 266 270 273 275 277 278 277 276
204 206 206 205 206 207 208 210 212 213 213 214 214 212 212 212 206 200 198 202 203 201 201 204 207 208 206 206 209 213 215 216 216 215 215 215 217 217 217 218 218 219 221 223 224 225 226 228 229 230 230 230 230 231 231 231 230 231 233 235 235 237 240 242 244 245 247 249 249 251 253 255 258 259 261 263 265 266 269 271 271 273 274 276 277 277 276 275
203 204 205 204 203 204 205 208 210 212 214 215 215 215 215 212 207 201 197 197 199 199 197 200 204 206 205 205 208 212 215 217 216 214 212 213 216 217 216 217 218 219 221 223 225 225 227 229 230 231 232 232 232 233 233 233 233 233 234 236 237 238 240 243 245 247 248 250 251 252 254 256 258 257 258 261 265 270 273 274 275 275 276 278 278 277 277 276
202 203 204 205 205 204 205 206 208 211 214 216 217 216 216 213 208 201 196 194 195 194 192 196 200 202 204 205 207 211 212 214 214 213 211 211 213 215 216 216 217 219 221 224 226 226 227 229 230 230 230 231 231 233 233 232 232 234 236 238 239 238 238 241 244 245 247 249 251 251 253 254 255 255 257 261 267 271 274 274 274 276 278 279 278 278 279 278
202 201 201 203 203 204 205 205 207 210 213 216 217 218 217 215 210 203 198 195 194 192 191 195 199 201 203 205 207 210 213 213 213 214 213 214 215 217 219 218 219 221 222 224 225 226 226 228 230 231 230 231 231 232 232 230 230 233 234 236 237 237 238 239 242 244 246 248 250 251 252 253 254 256 260 265 268 271 273 273 273 275 277 278 278 279 280 280
204 203 202 202 202 202 204 206 207 209 212 215 217 218 218 216 212 207 201 199 198 196 195 195 199 202 203 207 209 211 214 215 216 216 216 218 221 222 223 223 222 223 223 222 223 224 225 227 230 231 231 232 232 232 233 233 233 234 234 235 235 237 238 239 242 245 247 249 251 253 254 254 256 260 264 267 268 269 271 272 273 274 275 276 278 280 282 283
205 204 203 203 203 204 205 206 208 209 211 214 216 218 218 217 215 210 205 202 201 200 199 194 196 202 204 207 211 213 215 217 218 219 220 222 224 226 227 226 225 224 223 221 221 221 222 225 228 230 230 230 231 233 235 237 236 236 238 239 238 238 239 239 240 242 244 247 250 253 255 256 258 261 263 265 267 268 270 272 273 273 273 275 278 280 281 283
204 202 202 203 203 204 205 206 208 210 212 214 216 217 218 218 217 214 209 204 202 201 202 197 194 200 204 206 210 213 215 216 217 218 219 221 223 225 226 228 228 226 222 220 219 220 221 223 225 228 230 230 231 234 235 236 236 236 238 240 242 242 242 242 242 244 246 249 252 256 257 258 260 262 262 263 266 267 267 268 270 272 273 275 277 279 280 281
203 203 202 203 203 203 204 205 208 211 213 215 215 216 217 218 219 218 214 208 203 200 203 204 198 198 202 204 208 212 214 216 216 217 218 219 222 223 224 225 226 225 223 223 224 224 224 224 224 227 229 230 230 231 232 233 234 234 234 236 238 240 241 243 245 247 249 251 254 256 257 257 258 260 261 260 262 264 265 266 268 272 275 277 278 278 278 278
205 204 202 201 202 202 203 203 205 209 212 215 216 215 216 218 219 221 218 211 205 202 205 209 206 199 199 201 206 211 215 216 218 218 218 217 218 220 221 222 223 223 223 224 225 224 223 222 222 223 226 228 229 230 232 233 233 233 233 235 236 239 241 242 244 246 247 248 250 252 254 253 254 257 260 260 260 260 262 267 272 276 277 278 277 275 274 274
206 206 204 202 203 203 203 204 205 208 212 215 216 215 216 217 218 221 220 214 209 206 208 211 211 203 198 198 202 208 214 217 218 218 218 217 217 219 221 222 223 224 225 225 225 224 223 224 223 222 223 226 227 227 228 229 231 233 234 235 237 240 241 240 241 242 242 243 244 246 249 251 253 257 258 259 260 261 264 270 273 275 275 274 273 272 271 272
207 208 205 204 205 205 206 207 207 209 212 214 217 217 217 218 218 220 221 217 213 212 212 213 212 209 201 198 199 204 210 215 217 217 216 217 217 219 221 222 222 224 226 227 227 225 224 226 227 227 228 229 230 232 233 234 235 235 233 232 234 236 238 238 239 239 240 242 243 244 248 252 255 257 258 259 261 263 266 269 269 269 269 269 270 270 270 270
209 211 209 207 207 207 208 209 209 211 215 217 220 221 220 220 220 221 222 221 219 217 216 215 213 212 208 202 200 201 204 210 215 217 216 216 216 217 219 220 220 221 223 225 226 225 225 227 230 231 233 235 239 242 243 241 238 237 235 234 233 234 235 236 236 238 242 245 245 246 251 253 254 257 259 261 262 261 260 261 261 261 262 265 266 268 269 270
209 212 214 212 211 211 210 210 212 214 217 221 223 223 223 221 220 221 222 223 223 220 217 215 214 213 212 207 204 203 202 204 210 215 217 217 215 216 219 219 218 219 220 222 225 226 227 228 230 232 234 236 238 241 241 240 239 239 240 239 237 236 237 237 238 241 243 244 245 249 252 253 254 257 258 258 257 255 253 252 253 254 256 260 263 265 267 269
211 212 213 213 214 214 213 213 214 216 217 219 220 219 219 218 217 218 221 223 224 221 217 216 216 214 213 212 210 207 204 203 205 209 215 219 217 216 218 219 219 219 220 221 223 225 228 230 231 233 234 234 235 236 237 237 238 239 239 239 239 239 239 241 243 244 243 244 248 252 252 251 250 251 252 251 248 246 244 243 243 246 251 256 261 264 265 266
213 214 213 212 211 211 211 213 214 216 217 218 218 218 219 217 214 214 218 221 223 222 218 216 217 217 215 214 214 211 208 207 206 205 208 216 220 218 217 218 218 217 219 220 221 224 228 229 229 231 233 233 234 235 235 235 236 236 236 236 236 237 239 241 242 242 242 244 247 246 245 245 242 238 239 240 239 239 240 239 237 238 246 254 260 262 261 261
214 215 215 215 213 209 208 210 212 214 216 217 219 220 220 220 218 216 219 222 223 223 221 218 218 221 219 217 216 214 211 211 211 208 205 210 217 220 219 220 220 218 218 218 220 223 226 226 227 229 231 232 233 235 236 236 236 236 236 235 235 235 236 235 236 237 238 240 241 238 238 239 235 230 231 236 239 241 244 246 241 236 241 252 259 260 258 258
213 214 216 217 216 213 210 210 211 213 214 214 214 215 217 218 219 218 219 223 224 224 223 221 221 224 224 221 217 216 215 213 213 214 210 208 212 217 219 220 221 221 220 219 220 221 224 225 225 228 230 232 233 234 235 236 237 236 235 233 234 234 234 233 235 236 236 237 237 233 235 241 238 230 230 235 239 242 247 251 246 238 240 250 255 256 255 256
211 213 214 215 217 216 213 212 212 213 215 215 211 210 212 213 212 209 209 216 222 224 224 224 224 225 227 224 219 217 218 216 214 215 215 212 211 213 215 217 218 219 220 222 223 222 222 223 225 227 230 231 232 233 233 235 237 235 231 230 232 234 234 233 233 234 235 235 233 231 236 242 236 227 227 233 238 243 248 251 247 241 242 247 249 250 252 253
Height
5600 5608 5616 5624 5632 5640 5649 5656 5664 5673 5681 5687 5696 5704 5711 5718 5724 5728 5731 5737 5742 5747 5752 5757 5761 5765 5769 5774 5778 5782 5785 5788 5791 5795 5800 5806 5810 5812 5814 5818 5822 5823 5826 5829 5831 5834 5837 5839 5841 5843 5845 5846 5849 5851 5853 5855 5857 5858 5860 5862 5864 5866 5867 5868 5869 5870 5874 5875 5875 5877 5878 5879 5881 5881 5882 5882 5882 5883 5884 5885 5886 5887 5888 5889 5890 5891 5892 5893
5591 5599 5607 5616 5624 5632 5640 5649 5657 5665 5674 5681 5689 5698 5705 5712 5719 5723 5727 5732 5737 5742 5748 5753 5756 5761 5766 5770 5775 5778 5781 5784 5787 5792 5799 5803 5805 5808 5812 5816 5818 5819 5823 5826 5829 5833 5835 5837 5839 5841 5842 5844 5846 5849 5851 5853 5855 5857 5858 5860 5863 5864 5864 5866 5868 5870 5874 5874 5873 5875 5877 5878 5880 5880 5881 5881 5882 5883 5883 5885 5885 5886 5887 5888 5889 5890 5892 5893
5581 5590 5598 5607 5616 5624 5632 5642 5649 5658 5668 5675 5683 5692 5699 5706 5714 5719 5723 5728 5735 5740 5744 5748 5752 5757 5762 5767 5771 5774 5777 5780 5783 5790 5797 5798 5802 5807 5809 5814 5816 5817 5821 5824 5827 5830 5832 5834 5836 5838 5839 5842 5844 5847 5849 5851 5854 5855 5856 5859 5861 5862 5862 5865 5867 5869 5871 5871 5872 5874 5875 5877 5878 5879 5880 5880 5881 5882 5883 5884 5885 5886 5886 5887 5888 5889 5891 5892
5572 5581 5589 5598 5607 5616 5625 5634 5642 5650 5660 5669 5676 5685 5693 5700 5708 5715 5719 5725 5732 5737 5739 5743 5748 5753 5758 5763 5766 5769 5773 5775 5780 5790 5794 5795 5801 5805 5806 5811 5814 5816 5819 5821 5825 5827 5829 5832 5833 5835 5837 5839 5842 5844 5847 5850 5852 5853 5855 5857 5859 5859 5860 5864 5866 5867 5868 5869 5872 5873 5874 5876 5877 5878 5878 5879 5880 5881 5883 5884 5884 5885 5886 5886 5887 5888 5889 5891
5563 5571 5581 5589 5599 5608 5616 5626 5634 5643 5652 5662 5670 5679 5688 5694 5702 5711 5716 5721 5728 5733 5734 5738 5744 5749 5753 5757 5762 5766 5769 5771 5779 5788 5790 5793 5799 5801 5804 5809 5812 5814 5817 5819 5822 5825 5827 5829 5831 5833 5835 5837 5840 5843 5846 5848 5849 5851 5854 5855 5857 5858 5860 5864 5865 5865 5866 5868 5870 5871 5873 5875 5875 5876 5877 5878 5878 5880 5883 5883 5884 5885 5885 5885 5886 5887 5888 5889
5553 5563 5572 5581 5590 5599 5608 5617 5627 5635 5644 5655 5664 5673 5682 5688 5698 5706 5712 5718 5724 5727 5729 5733 5740 5745 5748 5753 5757 5762 5765 5769 5778 5785 5787 5791 5795 5798 5802 5805 5809 5812 5813 5816 5819 5822 5824 5828 5830 5832 5833 5835 5838 5841 5844 5845 5846 5849 5851 5852 5854 5855 5857 5862 5863 5863 5864 5866 5868 5869 5872 5873 5873 5874 5876 5876 5877 5880 5881 5881 5883 5884 5884 5884 5885 5886 5887 5888
5545 5555 5563 5571 5581 5590 5599 5609 5619 5628 5638 5649 5658 5668 5676 5683 5692 5699 5705 5712 5718 5721 5723 5727 5735 5740 5743 5746 5751 5757 5761 5766 5775 5781 5784 5788 5791 5794 5798 5802 5806 5809 5811 5814 5817 5820 5823 5826 5828 5830 5832 5834 5837 5840 5841 5842 5844 5846 5848 5849 5852 5853 5855 5860 5860 5860 5862 5864 5866 5868 5869 5870 5871 5873 5874 5875 5876 5878 5879 5880 5882 5882 5883 5883 5884 5886 5886 5888
5539 5547 5554 5561 5570 5580 5591 5601 5611 5621 5631 5642 5652 5662 5671 5678 5686 5694 5700 5707 5712 5715 5717 5722 5730 5735 5736 5742 5748 5754 5758 5763 5771 5777 5781 5785 5787 5789 5794 5798 5802 5806 5809 5812 5815 5818 5820 5823 5826 5828 5831 5833 5836 5838 5838 5840 5842 5844 5846 5847 5850 5851 5854 5858 5858 5858 5860 5862 5865 5866 5867 5868 5870 5872 5873 5872 5874 5877 5878 5879 5880 5881 5882 5882 5884 5885 5886 5887
5531 5538 5546 5553 5562 5572 5582 5593 5603 5614 5624 5636 5646 5656 5665 5673 5681 5688 5695 5702 5707 5710 5714 5719 5726 5730 5731 5738 5744 5748 5758 5764 5767 5773 5777 5781 5783 5785 5790 5794 5799 5803 5807 5811 5813 5816 5818 5821 5824 5826 5829 5832 5834 5836 5836 5838 5840 5842 5843 5845 5848 5849 5852 5855 5855 5856 5858 5861 5863 5864 5865 5866 5868 5870 5871 5870 5873 5876 5877 5878 5879 5879 5881 5881 5883 5884 5885 5886
5525 5533 5539 5546 5556 5565 5575 5586 5596 5606 5618 5629 5640 5649 5659 5668 5675 5682 5689 5696 5701 5706 5710 5714 5721 5725 5725 5731 5737 5744 5758 5760 5762 5771 5774 5777 5779 5782 5787 5791 5796 5800 5804 5808 5811 5814 5817 5819 5821 5823 5827 5830 5832 5834 5835 5836 5838 5840 5842 5844 5846 5848 5850 5852 5853 5854 5856 5858 5860 5862 5863 5865 5867 5869 5869 5869 5872 5875 5875 5876 5877 5878 5879 5880 5881 5883 5884 5885
5521 5528 5533 5540 5549 5558 5568 5578 5588 5599 5611 5622 5632 5642 5653 5662 5670 5677 5683 5690 5696 5700 5705 5710 5715 5718 5719 5727 5734 5743 5754 5752 5756 5768 5770 5774 5777 5780 5786 5789 5794 5797 5801 5806 5809 5813 5815 5816 5819 5822 5825 5827 5829 5832 5833 5834 5836 5838 5840 5842 5844 5845 5847 5849 5850 5853 5855 5856 5858 5859 5860 5863 5865 5868 5868 5868 5870 5872 5872 5874 5876 5876 5878 5879 5880 5881 5883 5884
5515 5521 5526 5534 5543 5552 5561 5571 5582 5593 5604 5615 5625 5636 5648 5657 5665 5674 5679 5685 5691 5695 5700 5704 5708 5712 5715 5722 5729 5740 5748 5747 5753 5762 5765 5770 5773 5777 5782 5785 5790 5794 5799 5803 5805 5809 5811 5813 5816 5819 5822 5824 5828 5829 5830 5833 5835 5836 5838 5840 5841 5843 5845 5848 5849 5851 5852 5854 5856 5857 5857 5860 5864 5866 5865 5865 5867 5868 5870 5872 5874 5875 5876 5877 5879 5880 5881 5882
5508 5513 5521 5530 5539 5547 5555 5565 5576 5587 5599 5610 5619 5631 5642 5651 5662 5671 5677 5680 5685 5691 5695 5699 5703 5708 5710 5715 5724 5734 5739 5740 5748 5757 5760 5765 5768 5771 5776 5780 5785 5790 5795 5798 5801 5804 5806 5809 5813 5816 5819 5821 5824 5825 5827 5832 5833 5835 5836 5837 5838 5841 5844 5846 5846 5848 5850 5852 5854 5853 5854 5858 5862 5863 5862 5862 5865 5867 5869 5871 5872 5873 5874 5875 5877 5878 5880 5881
5504 5510 5517 5526 5534 5542 5549 5558 5570 5583 5595 5605 5614 5625 5636 5647 5656 5667 5674 5676 5680 5686 5690 5695 5699 5701 5703 5710 5718 5726 5731 5735 5742 5751 5756 5760 5763 5765 5770 5776 5781 5785 5789 5792 5795 5798 5801 5805 5810 5813 5816 5818 5819 5821 5826 5829 5830 5832 5833 5833 5836 5840 5843 5844 5844 5846 5848 5850 5850 5849 5852 5857 5859 5860 5861 5862 5864 5865 5866 5868 5869 5871 5872 5874 5875 5876 5878 5879
5501 5508 5515 5522 5529 5536 5544 5553 5565 5578 5590 5600 5609 5621 5631 5641 5651 5663 5672 5672 5675 5682 5686 5691 5691 5692 5696 5701 5709 5718 5725 5729 5736 5746 5752 5756 5759 5762 5768 5773 5776 5780 5784 5787 5790 5793 5797 5801 5804 5808 5812 5814 5815 5818 5823 5825 5827 5829 5828 5831 5835 5839 5841 5842 5843 5845 5846 5847 5847 5847 5851 5856 5857 5859 5860 5860 5861 5862 5863 5865 5866 5868 5870 5872 5873 5874 5876 5877
5499 5505 5512 5518 5524 5531 5540 5549 5559 5572 5585 5596 5605 5615 5625 5636 5646 5659 5670 5669 5670 5676 5679 5680 5681 5686 5690 5693 5702 5710 5716 5723 5733 5742 5747 5751 5754 5760 5766 5768 5771 5777 5781 5784 5786 5789 5793 5797 5800 5804 5807 5810 5811 5815 5819 5820 5823 5824 5824 5830 5834 5837 5839 5840 5841 5843 5844 5845 5846 5847 5850 5854 5855 5856 5857 5857 5859 5859 5860 5861 5863 5866 5868 5870 5871 5872 5874 5875
5496 5502 5509 5514 5521 5529 5537 5546 5555 5568 5581 5593 5602 5611 5620 5631 5641 5655 5665 5664 5664 5669 5671 5673 5678 5684 5683 5685 5695 5702 5710 5720 5729 5737 5742 5746 5751 5756 5761 5762 5767 5772 5775 5779 5782 5786 5790 5793 5797 5801 5803 5806 5808 5812 5814 5814 5817 5819 5823 5830 5833 5836 5838 5838 5840 5842 5842 5844 5844 5845 5848 5852 5853 5852 5853 5855 5856 5856 5858 5859 5861 5864 5866 5868 5869 5870 5872 5873
5493 5500 5507 5513 5520 5528 5535 5543 5553 5564 5577 5589 5600 5607 5616 5627 5637 5649 5657 5657 5659 5662 5664 5668 5671 5668 5664 5672 5686 5697 5710 5719 5725 5731 5736 5739 5745 5751 5755 5758 5763 5766 5769 5773 5777 5781 5785 5788 5792 5795 5798 5802 5804 5807 5808 5810 5814 5819 5824 5830 5833 5834 5834 5835 5838 5840 5839 5840 5842 5843 5848 5851 5850 5850 5851 5853 5854 5854 5856 5859 5860 5862 5864 5866 5867 5868 5870 5871
5491 5498 5505 5511 5518 5525 5533 5541 5549 5560 5571 5583 5592 5600 5610 5621 5631 5640 5645 5645 5646 5644 5644 5649 5651 5650 5660 5677 5690 5699 5708 5714 5721 5727 5730 5733 5740 5746 5749 5753 5757 5759 5764 5769 5773 5777 5780 5783 5786 5788 5793 5797 5801 5804 5807 5811 5816 5820 5825 5828 5829 5829 5830 5832 5835 5837 5836 5836 5839 5842 5846 5848 5847 5848 5849 5851 5852 5853 5855 5858 5859 5860 5861 5863 5865 5867 5868 5869
5489 5495 5502 5509 5515 5522 5529 5536 5545 5555 5565 5576 5585 5591 5598 5608 5616 5624 5629 5632 5635 5638 5641 5648 5655 5662 5674 5683 5687 5695 5703 5710 5718 5723 5726 5730 5736 5741 5744 5747 5750 5752 5759 5765 5769 5773 5776 5778 5781 5786 5793 5798 5801 5805 5809 5813 5815 5818 5821 5823 5825 5825 5827 5829 5830 5833 5835 5835 5837 5840 5843 5845 5845 5846 5848 5848 5850 5852 5854 5855 5856 5858 5859 5860 5862 5864 5866 5867
5487 5493 5500 5506 5512 5518 5525 5533 5541 5550 5561 5571 5579 5583 5589 5598 5604 5612 5621 5626 5634 5641 5645 5655 5666 5670 5672 5675 5684 5698 5704 5707 5715 5719 5723 5727 5731 5735 5738 5742 5745 5748 5756 5760 5763 5767 5769 5773 5779 5787 5794 5797 5801 5804 5808 5810 5811 5814 5817 5819 5822 5822 5824 5826 5826 5830 5834 5834 5835 5836 5839 5843 5844 5844 5846 5847 5849 5851 5852 5853 5854 5855 5856 5857 5859 5860 5862 5863
5484 5491 5498 5504 5509 5514 5522 5530 5537 5545 5555 5564 5570 5577 5587 5598 5607 5617 5624 5627 5633 5636 5640 5652 5659 5660 5666 5674 5684 5694 5697 5700 5706 5709 5714 5719 5723 5728 5733 5737 5741 5747 5752 5753 5755 5760 5763 5769 5777 5784 5789 5792 5796 5799 5802 5805 5807 5809 5812 5815 5818 5818 5821 5823 5823 5827 5831 5831 5832 5832 5835 5841 5841 5841 5844 5845 5848 5850 5850 5851 5852 5853 5854 5855 5857 5857 5859 5860
5481 5488 5494 5500 5505 5509 5516 5525 5532 5539 5548 5557 5566 5575 5585 5596 5607 5618 5622 5626 5631 5629 5632 5641 5643 5651 5662 5664 5668 5677 5683 5690 5699 5703 5707 5711 5713 5720 5727 5732 5737 5742 5744 5746 5753 5758 5762 5767 5774 5779 5783 5787 5791 5794 5797 5800 5801 5803 5808 5811 5814 5816 5819 5820 5820 5824 5828 5828 5829 5830 5831 5836 5838 5839 5842 5845 5846 5847 5847 5849 5850 5851 5853 5853 5854 5855 5856 5858
5479 5484 5490 5496 5502 5506 5513 5520 5526 5533 5543 5553 5562 5571 5582 5592 5602 5611 5616 5621 5624 5622 5628 5637 5642 5653 5659 5660 5669 5676 5678 5686 5694 5700 5703 5704 5706 5712 5719 5726 5732 5735 5738 5746 5752 5756 5761 5767 5772 5776 5779 5782 5786 5789 5792 5795 5796 5800 5806 5809 5811 5814 5816 5817 5817 5820 5825 5827 5826 5827 5826 5830 5836 5837 5840 5843 5842 5844 5846 5846 5848 5850 5851 5851 5852 5853 5854 5855
5476 5480 5486 5492 5498 5504 5509 5514 5520 5529 5538 5546 5555 5566 5578 5588 5598 5606 5611 5614 5616 5617 5624 5631 5638 5644 5649 5659 5668 5670 5675 5682 5688 5695 5701 5703 5705 5710 5715 5721 5725 5728 5735 5743 5747 5751 5756 5762 5768 5772 5775 5779 5782 5786 5789 5792 5794 5798 5805 5808 5809 5811 5811 5812 5815 5817 5823 5824 5823 5823 5820 5825 5834 5835 5837 5840 5840 5842 5844 5844 5847 5848 5848 5849 5850 5851 5852 5852
5473 5476 5482 5488 5493 5499 5502 5508 5516 5524 5532 5540 5552 5564 5574 5584 5593 5600 5604 5606 5609 5611 5613 5619 5625 5630 5640 5651 5655 5661 5669 5673 5680 5690 5695 5699 5704 5709 5712 5715 5719 5725 5732 5739 5742 5745 5750 5756 5762 5766 5770 5775 5778 5782 5787 5790 5791 5795 5803 5806 5806 5807 5807 5809 5813 5816 5818 5819 5819 5820 5817 5819 5829 5834 5835 5837 5837 5839 5841 5842 5845 5846 5846 5847 5848 5848 5849 5849
5469 5474 5479 5484 5489 5495 5500 5507 5513 5520 5528 5539 5551 5561 5570 5580 5589 5595 5598 5599 5601 5605 5608 5612 5618 5626 5637 5644 5649 5655 5655 5657 5671 5681 5685 5693 5699 5703 5707 5711 5718 5724 5728 5732 5734 5739 5747 5753 5757 5761 5765 5769 5773 5778 5784 5787 5789 5793 5799 5801 5802 5805 5806 5808 5811 5813 5814 5814 5814 5817 5817 5816 5822 5832 5835 5833 5834 5837 5840 5842 5842 5843 5844 5844 5845 5845 5846 5847
5467 5470 5475 5480 5485 5491 5497 5503 5508 5516 5527 5537 5549 5558 5567 5577 5584 5590 5590 5588 5593 5600 5602 5605 5616 5628 5634 5638 5645 5649 5650 5660 5671 5673 5680 5688 5692 5697 5702 5708 5718 5724 5726 5728 5732 5740 5747 5749 5754 5758 5760 5764 5771 5776 5780 5784 5786 5790 5793 5796 5800 5803 5804 5806 5808 5810 5810 5810 5809 5811 5816 5814 5815 5829 5833 5829 5831 5835 5837 5839 5839 5840 5841 5841 5842 5842 5843 5844
5463 5467 5471 5476 5481 5486 5492 5497 5504 5514 5523 5534 5544 5553 5564 5574 5579 5582 5578 5577 5585 5593 5596 5602 5614 5621 5622 5628 5637 5641 5650 5661 5666 5671 5678 5680 5684 5692 5697 5705 5715 5718 5721 5726 5732 5738 5742 5746 5751 5753 5755 5763 5771 5773 5776 5781 5784 5787 5789 5792 5798 5800 5800 5802 5803 5805 5805 5805 5805 5807 5812 5813 5811 5822 5830 5827 5829 5834 5835 5835 5836 5837 5838 5838 5839 5840 5841 5842
5460 5465 5469 5473 5479 5485 5491 5497 5503 5510 5518 5529 5537 5547 5560 5567 5569 5568 5562 5566 5579 5586 5591 5599 5606 5608 5611 5620 5627 5633 5642 5649 5659 5669 5671 5672 5680 5686 5692 5702 5707 5710 5714 5719 5724 5731 5739 5744 5745 5747 5755 5762 5766 5768 5771 5776 5779 5783 5784 5787 5793 5795 5796 5797 5797 5799 5799 5799 5802 5804 5808 5811 5807 5813 5825 5827 5827 5831 5832 5831 5832 5833 5834 5835 5836 5837 5838 5839
5458 5463 5466 5471 5477 5483 5489 5495 5501 5507 5515 5524 5532 5542 5551 5556 5557 5553 5551 5563 5577 5582 5586 5594 5600 5601 5605 5613 5618 5626 5634 5640 5651 5657 5657 5666 5675 5676 5682 5690 5693 5700 5706 5709 5715 5724 5731 5735 5738 5745 5753 5756 5758 5762 5766 5770 5774 5778 5779 5782 5787 5790 5790 5791 5791 5792 5793 5794 5799 5803 5806 5806 5803 5808 5821 5827 5826 5828 5829 5828 5827 5828 5830 5832 5834 5835 5836 5836
5456 5460 5463 5468 5474 5480 5485 5490 5495 5502 5511 5519 5527 5534 5540 5543 5544 5544 5551 5567 5574 5576 5582 5590 5595 5598 5603 5611 5616 5621 5625 5632 5644 5648 5652 5663 5666 5669 5677 5682 5684 5690 5694 5701 5712 5720 5724 5729 5735 5740 5744 5747 5752 5757 5759 5763 5769 5772 5773 5776 5780 5783 5783 5784 5784 5786 5789 5792 5796 5801 5802 5801 5801 5806 5815 5823 5824 5825 5826 5825 5824 5825 5827 5829 5830 5832 5833 5833
5453 5457 5461 5466 5472 5477 5481 5486 5491 5498 5505 5513 5520 5526 5530 5531 5532 5540 5554 5563 5566 5572 5580 5587 5593 5596 5602 5608 5610 5615 5622 5629 5637 5644 5652 5660 5663 5668 5676 5680 5684 5687 5693 5703 5709 5713 5718 5722 5727 5729 5734 5741 5745 5749 5754 5759 5765 5767 5768 5771 5773 5776 5777 5779 5781 5783 5786 5790 5794 5797 5798 5796 5801 5807 5811 5817 5820 5820 5821 5822 5822 5822 5823 5825 5826 5828 5830 5830
5450 5454 5459 5464 5469 5473 5478 5483 5489 5495 5501 5507 5512 5516 5519 5522 5530 5542 5552 5557 5563 5573 5580 5586 5592 5595 5600 5604 5605 5610 5617 5623 5631 5640 5647 5651 5653 5659 5666 5670 5677 5686 5697 5703 5703 5707 5712 5713 5718 5723 5729 5737 5741 5745 5751 5756 5761 5763 5764 5767 5769 5772 5775 5777 5779 5781 5784 5788 5790 5793 5792 5793 5800 5805 5808 5812 5814 5815 5817 5819 5820 5820 5820 5822 5823 5824 5826 5826
5447 5452 5457 5461 5466 5470 5475 5479 5485 5491 5496 5500 5505 5510 5512 5518 5529 5541 5548 5554 5564 5573 5578 5584 5589 5591 5596 5601 5603 5609 5613 5617 5627 5635 5637 5640 5643 5651 5658 5664 5674 5684 5690 5692 5697 5706 5711 5714 5721 5727 5731 5736 5739 5741 5746 5749 5753 5756 5758 5759 5763 5770 5773 5773 5775 5777 5780 5782 5784 5787 5788 5792 5798 5801 5803 5807 5808 5810 5813 5815 5816 5817 5817 5818 5820 5821 5822 5822
5445 5448 5453 5458 5463 5468 5471 5476 5481 5486 5490 5495 5500 5505 5510 5518 5529 5539 5547 5555 5565 5572 5576 5581 5584 5587 5591 5594 5597 5604 5608 5613 5622 5627 5629 5636 5643 5649 5656 5664 5673 5680 5683 5687 5695 5703 5708 5712 5718 5723 5728 5733 5735 5737 5742 5746 5748 5751 5752 5754 5763 5769 5769 5769 5771 5774 5776 5777 5779 5783 5786 5790 5794 5795 5799 5803 5805 5807 5809 5811 5812 5813 5814 5815 5816 5817 5817 5818
5441 5445 5451 5456 5461 5465 5468 5472 5477 5481 5486 5491 5497 5502 5509 5518 5528 5537 5545 5553 5561 5567 5571 5575 5578 5580 5584 5587 5590 5596 5601 5608 5617 5620 5622 5629 5636 5642 5652 5662 5670 5676 5681 5688 5694 5700 5705 5708 5711 5717 5721 5725 5728 5730 5735 5739 5741 5745 5749 5755 5761 5762 5762 5765 5766 5768 5770 5771 5774 5779 5782 5785 5787 5791 5796 5800 5803 5804 5805 5806 5808 5809 5810 5811 5811 5812 5813 5814
5438 5443 5449 5454 5458 5462 5465 5470 5473 5478 5483 5487 5493 5501 5508 5517 5525 5533 5541 5548 5555 5560 5565 5570 5574 5577 5580 5583 5587 5591 5596 5602 5608 5613 5618 5623 5629 5636 5647 5658 5666 5673 5680 5686 5690 5696 5701 5703 5707 5711 5715 5720 5722 5722 5725 5729 5733 5739 5745 5750 5753 5753 5756 5759 5760 5762 5765 5766 5770 5774 5777 5779 5783 5789 5795 5798 5801 5800 5799 5801 5803 5805 5806 5806 5807 5808 5809 5810
5436 5441 5446 5450 5455 5459 5463 5467 5470 5475 5479 5484 5491 5498 5504 5512 5520 5527 5536 5544 5550 5555 5559 5565 5571 5576 5578 5581 5586 5589 5592 5597 5602 5608 5613 5617 5626 5637 5646 5655 5663 5668 5675 5680 5684 5690 5695 5698 5700 5704 5711 5715 5714 5713 5718 5724 5730 5735 5738 5742 5745 5747 5750 5754 5756 5759 5762 5763 5766 5769 5771 5775 5781 5789 5792 5794 5797 5796 5795 5796 5798 5800 5801 5802 5803 5805 5805 5806
5433 5437 5443 5448 5452 5457 5461 5464 5467 5471 5476 5482 5489 5495 5501 5509 5515 5522 5532 5539 5545 5550 5555 5560 5567 5572 5575 5579 5583 5586 5591 5595 5599 5605 5610 5616 5627 5636 5644 5652 5659 5665 5671 5675 5678 5681 5687 5690 5692 5697 5702 5703 5704 5709 5717 5724 5727 5730 5733 5736 5739 5741 5743 5747 5751 5754 5756 5759 5762 5765 5767 5773 5781 5786 5788 5789 5792 5792 5791 5791 5792 5794 5796 5798 5800 5801 5802 5802
5430 5435 5440 5445 5450 5454 5458 5461 5465 5469 5474 5480 5486 5492 5498 5504 5511 5518 5526 5533 5539 5547 5553 5557 5562 5568 5574 5577 5579 5584 5589 5592 5596 5602 5607 5615 5622 5628 5638 5648 5655 5661 5665 5666 5668 5672 5678 5682 5685 5689 5692 5696 5703 5710 5716 5718 5720 5725 5729 5732 5735 5737 5739 5743 5746 5751 5755 5757 5760 5762 5763 5770 5777 5780 5783 5787 5787 5787 5787 5786 5787 5788 5790 5793 5796 5796 5798 5799
5427 5432 5437 5443 5448 5452 5456 5461 5464 5468 5473 5478 5482 5488 5494 5500 5507 5512 5519 5528 5536 5543 5550 5554 5558 5564 5569 5573 5576 5581 5584 5586 5592 5597 5603 5613 5620 5628 5640 5647 5651 5656 5657 5660 5666 5671 5673 5675 5678 5683 5687 5693 5701 5704 5706 5710 5714 5718 5721 5725 5729 5731 5734 5739 5744 5750 5753 5754 5757 5757 5757 5766 5773 5772 5777 5783 5782 5781 5781 5781 5783 5785 5786 5789 5791 5792 5793 5794
5424 5430 5435 5441 5446 5449 5454 5458 5462 5466 5471 5475 5480 5486 5491 5497 5503 5508 5514 5523 5531 5538 5543 5548 5554 5559 5564 5570 5574 5577 5579 5582 5588 5595 5604 5614 5622 5630 5637 5641 5645 5648 5650 5655 5661 5661 5661 5663 5669 5675 5680 5686 5693 5696 5700 5704 5706 5709 5713 5720 5723 5725 5731 5737 5741 5745 5746 5747 5751 5750 5750 5761 5767 5767 5773 5778 5777 5776 5776 5777 5779 5781 5782 5784 5785 5787 5788 5788
5424 5428 5433 5438 5442 5447 5452 5456 5460 5465 5469 5473 5477 5483 5487 5493 5499 5504 5510 5518 5526 5532 5537 5544 5550 5555 5560 5566 5570 5574 5577 5580 5586 5595 5604 5611 5618 5625 5629 5633 5639 5640 5642 5648 5651 5652 5654 5657 5662 5667 5671 5676 5680 5684 5689 5693 5697 5703 5711 5716 5718 5723 5728 5730 5733 5735 5734 5737 5743 5741 5745 5757 5763 5764 5769 5772 5770 5771 5773 5774 5776 5777 5777 5779 5780 5781 5782 5783
5422 5424 5429 5434 5440 5446 5451 5455 5460 5464 5468 5472 5476 5480 5485 5491 5496 5501 5507 5514 5521 5527 5532 5540 5547 5551 5556 5561 5566 5571 5574 5578 5584 5590 5598 5605 5612 5616 5620 5626 5632 5635 5641 5646 5647 5650 5651 5650 5654 5660 5661 5663 5667 5675 5683 5689 5694 5699 5703 5707 5712 5717 5719 5721 5724 5722 5722 5731 5736 5734 5743 5757 5760 5760 5764 5766 5766 5768 5769 5770 5771 5772 5772 5773 5774 5775 5776 5777
5418 5422 5426 5431 5438 5445 5450 5455 5460 5464 5468 5472 5476 5480 5484 5489 5494 5499 5504 5510 5516 5522 5529 5536 5543 5549 5553 5557 5562 5567 5571 5576 5580 5585 5591 5596 5603 5610 5614 5621 5627 5631 5637 5639 5640 5645 5644 5644 5651 5656 5657 5664 5673 5680 5686 5689 5691 5694 5697 5702 5707 5709 5709 5712 5713 5713 5722 5731 5729 5731 5745 5754 5754 5756 5759 5761 5763 5764 5765 5766 5766 5767 5767 5767 5768 5769 5770 5771
5416 5420 5426 5432 5439 5444 5449 5455 5460 5464 5467 5471 5474 5478 5481 5486 5491 5496 5500 5506 5511 5518 5525 5531 5538 5546 5550 5554 5559 5563 5568 5573 5577 5582 5586 5591 5599 5607 5611 5617 5622 5626 5630 5632 5633 5637 5637 5640 5648 5652 5658 5667 5673 5675 5680 5686 5689 5693 5697 5700 5703 5705 5705 5705 5707 5715 5726 5723 5720 5734 5746 5746 5749 5753 5754 5756 5759 5759 5761 5761 5761 5761 5761 5761 5762 5763 5765 5766
5414 5419 5425 5432 5437 5443 5449 5455 5457 5460 5463 5466 5469 5472 5476 5481 5487 5492 5497 5501 5506 5513 5521 5528 5535 5542 5548 5552 5556 5560 5565 5570 5575 5579 5583 5588 5597 5603 5607 5612 5616 5619 5623 5625 5627 5630 5632 5638 5647 5651 5655 5662 5664 5666 5673 5680 5683 5687 5691 5694 5699 5701 5701 5702 5707 5718 5721 5714 5719 5738 5740 5736 5745 5749 5747 5751 5753 5753 5755 5754 5754 5755 5755 5756 5757 5758 5760 5761
5414 5418 5423 5428 5434 5440 5446 5449 5451 5454 5458 5461 5465 5470 5474 5479 5485 5489 5493 5497 5502 5509 5517 5525 5531 5537 5544 5550 5555 5559 5563 5567 5572 5577 5581 5586 5592 5597 5602 5606 5608 5614 5618 5620 5623 5626 5628 5636 5643 5645 5649 5654 5657 5661 5667 5672 5675 5679 5682 5687 5691 5693 5696 5700 5705 5712 5712 5710 5721 5733 5729 5729 5740 5742 5741 5745 5745 5745 5746 5746 5746 5748 5749 5750 5752 5754 5756 5756
5411 5416 5421 5425 5431 5435 5439 5443 5448 5452 5456 5460 5464 5470 5476 5480 5484 5488 5492 5497 5502 5507 5515 5523 5529 5533 5540 5547 5553 5557 5560 5563 5568 5573 5577 5582 5586 5593 5599 5601 5604 5609 5612 5615 5619 5621 5625 5633 5638 5641 5644 5646 5650 5657 5661 5664 5668 5672 5675 5679 5683 5686 5689 5693 5697 5702 5703 5705 5717 5723 5719 5724 5734 5735 5735 5737 5737 5737 5738 5739 5741 5743 5744 5746 5747 5749 5750 5750
5409 5414 5419 5424 5428 5431 5435 5441 5446 5450 5455 5460 5465 5471 5476 5479 5483 5488 5492 5496 5500 5506 5513 5520 5524 5528 5533 5541 5549 5554 5556 5558 5562 5567 5572 5576 5580 5585 5591 5593 5597 5602 5604 5608 5613 5617 5622 5629 5633 5634 5635 5638 5647 5653 5653 5657 5661 5662 5665 5670 5675 5679 5683 5687 5693 5696 5697 5702 5712 5714 5712 5721 5729 5727 5727 5729 5729 5731 5733 5735 5738 5739 5740 5742 5743 5745 5745 5745
5407 5411 5416 5420 5424 5428 5434 5438 5442 5447 5454 5461 5466 5470 5474 5477 5480 5485 5490 5494 5498 5504 5509 5513 5518 5522 5527 5536 5545 5549 5550 5553 5558 5561 5566 5570 5573 5577 5580 5583 5588 5594 5599 5604 5609 5612 5618 5623 5624 5624 5628 5636 5643 5644 5646 5649 5646 5645 5654 5666 5670 5674 5679 5683 5688 5691 5693 5699 5704 5704 5710 5721 5723 5720 5722 5723 5724 5728 5731 5733 5735 5736 5736 5737 5738 5740 5740 5740